STARLINK-2044 (47660 NORAD) Tracking and Keplerian Element Data

This shows tracking and keplerian element data for the satellite.

Feedback or suggestion? Click here.




ElementValue
Catalog47660
NameSTARLINK-2044
Epoch Orbit235
Epoch Day57.16667824
Epoch Year2021
RAAN52.0224
Inclination53.0495
Eccentricity0.0001098
Argument of Perigee83.6591
Mean Anonmoly176.3925
Mean Motion15.86093541
Decay Rate0.00059202
L11 47660U 21012AS 21057.16667824 .00059202 00000-0 23563-3 0 9994
L22 47660 53.0495 52.0224 0001098 83.6591 176.3925 15.86093541 2351

Live tracking and technical data element details for STARLINK-2044 (NORAD 47660). STARLINK-2044 can be tracked NOW for your location showing map with azimuth and elevation plus other details from your city location.

Track the satellite on the map from your city or location and see movement details for azimuth, elevation, latitude, longitude, range, height, and movement on the map or in text.







IsCatalogInMostPopularTable: catalog: 47660, numindb: 1
Update: records affected: 1



GetName: 47660 STARLINK-2044

Hit Count: updated at: Fri, 26 Feb 2021 09:55:52 GMT